[[{"header":{"parameterUnit":"m.s-1","parameterCategory":1,"la1":30.2991,"la2":30.254,"lo1":-89.0895,"lo2":-89.0444,"dy":0.0017,"dx":0.0017,"nx":28,"ny":28,"refTime":"2023-11-20T09:00:00:Z","depth":0,"parameterNumber":2,"parameterNumberName":"U-component_of_WINDS"},"data":[0,0,0,0,0,0,0,0,0,0,0,0,0,0,0,0,0,0,0,0,0,0,0,0,0,0,0,0,0,0,0,0,0,0,0,0,0,0,0,0,0,0,0,0,0,0,0,0,0,0,0,0,0,0,0,0,0,0,1.1993,1.1993,0,1.2009,1.2009,1.2009,1.2013,1.2012,1.2012,1.2012,1.2029,1.203,1.2031,0,0,0,0,0,0,0,0,0,0,0,0,0,1.1968,1.1968,1.1993,1.1993,1.1994,1.2009,1.2009,1.2009,1.2013,1.2012,1.2012,1.2012,1.2029,1.203,1.2031,0,0,0,0,0,0,0,0,0,0,0,0,0,1.1981,1.1968,1.1993,1.1997,1.1998,1.2009,1.2009,1.2009,1.2013,1.2012,1.2012,1.2012,1.2029,1.203,1.2031,1.204,0,0,1.2033,1.2034,0,0,0,0,0,0,0,0,1.198,1.1982,1.1996,1.1997,1.1997,1.2009,1.2006,1.202,1.2013,1.2007,1.2012,1.2012,1.2023,1.2024,1.2027,1.204,1.2041,1.2033,1.2034,1.2034,1.2034,0,0,0,0,0,0,0,1.1979,1.1981,1.2,1.1997,1.1997,1.1999,1.2,1.2009,1.2016,1.2007,1.2008,1.2009,1.2023,1.2027,1.2028,1.2041,1.2033,1.2034,1.2035,1.2035,1.2063,1.2064,0,0,0,0,0,0,1.1977,1.198,1.1999,1.2,1.1988,1.1999,1.2001,1.2005,1.2016,1.2017,1.201,1.201,1.2025,1.2027,1.2028,1.204,1.2034,1.2035,1.2036,1.2063,1.2063,1.2064,0,0,0,0,0,0,1.1977,1.1979,1.1998,1.199,1.1993,1.2,1.2005,1.2006,1.2009,1.2017,1.2019,1.2012,1.2025,1.2027,1.2037,1.2041,1.2035,1.2036,1.2063,1.2063,1.2064,1.2063,0,0,0,0,0,0,1.1976,1.1979,1.1982,1.199,1.1993,1.2006,1.2005,1.2006,1.2011,1.2011,1.202,1.2021,1.2025,1.2036,1.2038,1.2042,1.2037,1.2063,1.2063,1.2063,1.2062,1.2063,1.2063,0,0,0,0,0,1.1975,1.1981,1.1982,1.1984,1.1997,1.2006,1.2008,1.2012,1.2011,1.2014,1.202,1.2021,1.204,1.2037,1.2039,1.2043,1.2062,1.2063,1.2063,1.2062,1.2063,1.2063,0,0,0,0,0,0,1.1973,1.1982,1.1983,1.1992,1.1998,1.2007,1.2011,1.2013,1.202,1.2019,1.2025,1.2027,1.2036,1.2041,1.2037,1.2053,1.2051,1.2052,1.2049,1.205,1.2051,1.2049,1.2038,0,0,0,0,0,1.1973,1.1979,1.1987,1.1994,1.1997,1.2004,1.2008,1.2011,1.2018,1.202,1.2026,1.2033,1.2041,1.2046,1.2053,1.2063,1.2066,1.2068,1.2068,1.2069,1.2069,1.2075,1.2076,1.2066,1.2066,1.2066,0,0,1.1974,1.198,1.1984,1.1994,1.1999,1.2006,1.2006,1.2013,1.2018,1.2022,1.2031,1.2036,1.2044,1.2054,1.2059,1.2058,1.2073,1.2069,1.2069,1.207,1.2076,1.2077,1.2078,1.2066,1.2066,1.2066,0,0,1.1979,1.1984,1.1991,1.1996,1.2004,1.2008,1.201,1.2019,1.2022,1.2031,1.2034,1.2041,1.2054,1.206,1.2065,1.2073,1.2075,1.2076,1.2078,1.2084,1.2085,1.2086,1.2089,1.209,1.2077,1.2077,1.2077,0,1.198,1.1989,1.1994,1.2001,1.2006,1.2009,1.2016,1.2021,1.2031,1.2035,1.2034,1.2051,1.2057,1.2068,1.2071,1.2074,1.2077,1.2074,1.2085,1.2085,1.2086,1.2089,1.2091,1.2077,1.2077,1.2077,1.2077,0,1.199,1.1996,1.2001,1.201,1.2016,1.2023,1.2029,1.2034,1.2037,1.2041,1.2051,1.2059,1.2068,1.2071,1.2074,1.2084,1.2083,1.2083,1.2082,1.2087,1.209,1.2091,1.2077,1.2077,1.2077,1.2077,0,0,1.1993,1.2005,1.2007,1.2011,1.2021,1.2026,1.2034,1.2043,1.2047,1.2055,1.2062,1.2073,1.2074,1.2079,1.2083,1.2088,1.2095,1.2088,1.2088,1.2089,1.2107,1.2106,1.2107,1.2096,1.2097,1.2097,1.2106,0,1.1999,1.2012,1.2017,1.2027,1.2034,1.2038,1.2045,1.2052,1.2057,1.2064,1.207,1.2078,1.2078,1.2081,1.2087,1.2093,1.2098,1.2092,1.2103,1.2103,1.21,1.2109,1.2108,1.2116,1.2107,1.2107,1.2107,0,1.2008,1.2015,1.2026,1.2035,1.2039,1.2044,1.2053,1.206,1.2068,1.2072,1.2078,1.2082,1.2091,1.2089,1.2102,1.2097,1.2103,1.2106,1.2107,1.2108,1.2105,1.211,1.2118,1.2119,1.2109,1.2109,1.2109,0,1.2009,1.2021,1.203,1.2034,1.2045,1.2049,1.2054,1.2062,1.2067,1.2076,1.2079,1.2088,1.2093,1.2101,1.2107,1.2105,1.212,1.2118,1.2123,1.2123,1.2125,1.2125,1.2135,1.2129,1.2129,1.2129,1.2129,0,1.2015,1.2022,1.2031,1.2036,1.2044,1.205,1.2058,1.2063,1.2071,1.2078,1.2082,1.2089,1.2097,1.2105,1.211,1.212,1.2122,1.2125,1.2127,1.2125,1.2124,1.2128,1.2127,1.2129,1.2129,1.2129,1.2129,0,1.2017,1.2023,1.2033,1.2043,1.2046,1.2051,1.206,1.2066,1.2071,1.208,1.2082,1.2091,1.21,1.2108,1.212,1.2124,1.2134,1.2136,1.2131,1.2132,1.2136,1.2135,1.2148,1.215,1.2143,1.2143,1.2143,0,1.2021,1.2026,1.2036,1.2041,1.2046,1.2053,1.2059,1.2065,1.2071,1.2082,1.2086,1.2096,1.2104,1.2119,1.2127,1.2137,1.2139,1.2143,1.214,1.2138,1.2139,1.2138,1.2139,1.2143,1.2143,1.2143,1.2143,0,1.2026,1.2029,1.2036,1.2045,1.2051,1.2058,1.2066,1.207,1.2078,1.2084,1.2093,1.21,1.2113,1.2123,1.2133,1.2139,1.2143,1.2144,1.2145,1.2143,1.214,1.2142,1.2132,1.2143,1.2143,1.2143,1.2143,1.2143,1.2029,1.2034,1.2042,1.205,1.2056,1.2063,1.2069,1.2076,1.2084,1.2094,1.2098,1.2108,1.2117,1.2132,1.2138,1.2147,1.2147,1.2149,1.215,1.215,1.215,1.2139,1.2149,1.2149,1.2149,1.2149,1.2149,0,1.2034,1.204,1.2047,1.2057,1.2064,1.2066,1.2075,1.2081,1.2089,1.2097,1.2105,1.2117,1.2127,1.2136,1.2146,1.2152,1.2153,1.2154,1.2154,1.2155,1.2149,1.2147,1.2152,1.2152,1.2152,1.2152,1.2152,1.2152,1.2038,1.2046,1.205,1.2063,1.2069,1.2078,1.2083,1.209,1.2096,1.2109,1.2117,1.2122,1.2131,1.2143,1.2152,1.2155,1.2158,1.2159,1.2162,1.2156,1.2155,1.2155,1.2153,1.2159,1.2159,1.2167,1.2167,1.2167]},{"header":{"parameterUnit":"m.s-1","parameterCategory":1,"la1":30.2991,"la2":30.254,"lo1":-89.0895,"lo2":-89.0444,"dy":0.0017,"dx":0.0017,"nx":28,"ny":28,"refTime":"2023-11-20T09:00:00:Z","depth":0,"parameterNumber":3,"parameterNumberName":"V-component_of_WINDS"},"data":[0,0,0,0,0,0,0,0,0,0,0,0,0,0,0,0,0,0,0,0,0,0,0,0,0,0,0,0,0,0,0,0,0,0,0,0,0,0,0,0,0,0,0,0,0,0,0,0,0,0,0,0,0,0,0,0,0,0,-7.3041,-7.3043,0,-7.3175,-7.3176,-7.3177,-7.3106,-7.3103,-7.3099,-7.3096,-7.3225,-7.3231,-7.3238,0,0,0,0,0,0,0,0,0,0,0,0,0,-7.2719,-7.2725,-7.3041,-7.3043,-7.3045,-7.3174,-7.3176,-7.3178,-7.3107,-7.3103,-7.3098,-7.3094,-7.3222,-7.323,-7.3238,0,0,0,0,0,0,0,0,0,0,0,0,0,-7.2856,-7.2727,-7.3041,-7.3025,-7.3025,-7.3174,-7.3176,-7.3178,-7.3108,-7.3102,-7.3097,-7.3092,-7.322,-7.323,-7.324,-7.341,0,0,-7.3271,-7.3275,0,0,0,0,0,0,0,0,-7.2848,-7.2868,-7.3026,-7.3026,-7.3027,-7.3118,-7.311,-7.3256,-7.3109,-7.3076,-7.3096,-7.3089,-7.3193,-7.3205,-7.3242,-7.3416,-7.3421,-7.3271,-7.3278,-7.3282,-7.3285,0,0,0,0,0,0,0,-7.2839,-7.2862,-7.3094,-7.3028,-7.3029,-7.3009,-7.3023,-7.3137,-7.3163,-7.3079,-7.3074,-7.3091,-7.3192,-7.3232,-7.3244,-7.3423,-7.3271,-7.328,-7.3286,-7.329,-7.3744,-7.3749,0,0,0,0,0,0,-7.2831,-7.2854,-7.3089,-7.3098,-7.2923,-7.3019,-7.3034,-7.3094,-7.3161,-7.3167,-7.3095,-7.3087,-7.3217,-7.3232,-7.3248,-7.3452,-7.3282,-7.3291,-7.3297,-7.3738,-7.3745,-7.3751,0,0,0,0,0,0,-7.2825,-7.2853,-7.3084,-7.2975,-7.3003,-7.3031,-7.3098,-7.31,-7.3139,-7.3174,-7.3178,-7.3132,-7.3214,-7.3234,-7.3371,-7.3456,-7.3296,-7.3305,-7.3731,-7.374,-7.3748,-7.3862,0,0,0,0,0,0,-7.2816,-7.2851,-7.2917,-7.2977,-7.3009,-7.3207,-7.3104,-7.3106,-7.3158,-7.3149,-7.3209,-7.3214,-7.3211,-7.3356,-7.3381,-7.3467,-7.3313,-7.3723,-7.3735,-7.3745,-7.3851,-7.3873,-7.3893,0,0,0,0,0,-7.2804,-7.2942,-7.2921,-7.295,-7.3093,-7.3212,-7.323,-7.3226,-7.3165,-7.3231,-7.3254,-7.3212,-7.3443,-7.3371,-7.3398,-7.3488,-7.3718,-7.3731,-7.3744,-7.3841,-7.3869,-7.3893,0,0,0,0,0,0,-7.2888,-7.2949,-7.2927,-7.3088,-7.3146,-7.3199,-7.3283,-7.3255,-7.3329,-7.3316,-7.3306,-7.332,-7.3462,-7.3489,-7.3407,-7.3657,-7.357,-7.359,-7.3634,-7.3661,-7.3682,-7.3673,-7.3322,0,0,0,0,0,-7.2927,-7.302,-7.3067,-7.3205,-7.3236,-7.3255,-7.3306,-7.3298,-7.3356,-7.3379,-7.3411,-7.3467,-7.3552,-7.3608,-7.3688,-7.3854,-7.3866,-7.393,-7.3951,-7.3968,-7.3985,-7.4075,-7.4104,-7.3795,-7.3795,-7.3795,0,0,-7.3005,-7.305,-7.3109,-7.3224,-7.3267,-7.3363,-7.3275,-7.3379,-7.345,-7.3394,-7.3526,-7.3552,-7.3613,-7.3766,-7.3834,-7.3792,-7.4073,-7.3985,-7.3999,-7.4006,-7.4092,-7.4121,-7.4147,-7.3804,-7.3803,-7.3801,0,0,-7.3196,-7.324,-7.336,-7.3407,-7.3475,-7.3487,-7.3516,-7.3575,-7.359,-7.3723,-7.3684,-7.3766,-7.3912,-7.3958,-7.4001,-7.4212,-7.4176,-7.4238,-7.4349,-7.4437,-7.4461,-7.4482,-7.4558,-7.4585,-7.4254,-7.4255,-7.4255,0,-7.3284,-7.3429,-7.3425,-7.3534,-7.3585,-7.3542,-7.3663,-7.3707,-7.3797,-7.3832,-7.3784,-7.3969,-7.4006,-7.4169,-7.4221,-7.4257,-7.4289,-7.423,-7.4458,-7.448,-7.45,-7.4571,-7.46,-7.4262,-7.4261,-7.426,-7.4259,0,-7.3534,-7.3635,-7.3723,-7.3815,-7.3876,-7.399,-7.4002,-7.4064,-7.4051,-7.4067,-7.4203,-7.4248,-7.4337,-7.4374,-7.4361,-7.4536,-7.4508,-7.446,-7.4372,-7.4536,-7.4604,-7.4631,-7.4272,-7.4269,-7.4267,-7.4265,0,0,-7.3781,-7.3871,-7.3903,-7.3945,-7.4018,-7.4094,-7.4206,-7.4296,-7.4349,-7.4413,-7.4505,-7.4631,-7.4588,-7.4636,-7.4628,-7.4705,-7.487,-7.4647,-7.4649,-7.4687,-7.5065,-7.5101,-7.5133,-7.4847,-7.4852,-7.4856,-7.506,0,-7.3978,-7.4177,-7.4177,-7.4359,-7.4452,-7.4414,-7.4511,-7.4565,-7.4584,-7.4663,-7.4682,-7.4772,-7.4708,-7.4737,-7.4812,-7.4834,-7.4946,-7.4819,-7.4932,-7.4936,-7.4918,-7.5168,-7.5206,-7.5396,-7.5086,-7.509,-7.5094,0,-7.4234,-7.4309,-7.4502,-7.4563,-7.4602,-7.469,-7.4773,-7.485,-7.491,-7.4918,-7.4974,-7.4954,-7.5066,-7.4976,-7.513,-7.5044,-7.509,-7.5108,-7.5115,-7.5125,-7.5025,-7.5185,-7.5456,-7.5485,-7.5135,-7.5131,-7.5129,0,-7.4395,-7.4545,-7.468,-7.4716,-7.4791,-7.4853,-7.4886,-7.4942,-7.4996,-7.5068,-7.5102,-7.5185,-7.523,-7.5294,-7.5296,-7.5231,-7.5451,-7.5361,-7.546,-7.546,-7.5507,-7.5504,-7.579,-7.5537,-7.5537,-7.5536,-7.5536,0,-7.4615,-7.4735,-7.4754,-7.4837,-7.4969,-7.4968,-7.5098,-7.5125,-7.5175,-7.5261,-7.5231,-7.5312,-7.5311,-7.5393,-7.5395,-7.5522,-7.5542,-7.555,-7.555,-7.5554,-7.5553,-7.5583,-7.557,-7.5544,-7.5542,-7.5541,-7.5539,0,-7.4818,-7.4836,-7.4981,-7.504,-7.5058,-7.5153,-7.5202,-7.528,-7.5297,-7.5406,-7.5432,-7.5457,-7.5552,-7.5561,-7.567,-7.5672,-7.5825,-7.581,-7.5806,-7.5804,-7.5901,-7.5892,-7.6217,-7.6259,-7.5978,-7.5981,-7.5983,0,-7.4957,-7.5049,-7.5119,-7.5176,-7.5214,-7.5306,-7.5362,-7.5364,-7.5423,-7.55,-7.5569,-7.5661,-7.5736,-7.5889,-7.5915,-7.5999,-7.5985,-7.6093,-7.5997,-7.5999,-7.5987,-7.5982,-7.5991,-7.6112,-7.6115,-7.6117,-7.6119,0,-7.5202,-7.5207,-7.5291,-7.5379,-7.5448,-7.5516,-7.558,-7.5628,-7.5637,-7.5705,-7.5804,-7.5862,-7.5975,-7.6067,-7.615,-7.6181,-7.6152,-7.615,-7.6177,-7.6181,-7.6176,-7.618,-7.5857,-7.6142,-7.614,-7.6138,-7.6137,-7.6136,-7.5378,-7.5458,-7.5521,-7.5615,-7.5664,-7.5725,-7.5802,-7.583,-7.5913,-7.6008,-7.6003,-7.6111,-7.6169,-7.6277,-7.6315,-7.6398,-7.6362,-7.6401,-7.6411,-7.6421,-7.6431,-7.6163,-7.6413,-7.6412,-7.6412,-7.6411,-7.6411,0,-7.5622,-7.5661,-7.5748,-7.584,-7.5915,-7.5884,-7.5953,-7.6017,-7.6114,-7.6172,-7.6246,-7.636,-7.6449,-7.6484,-7.6571,-7.6631,-7.662,-7.6653,-7.6649,-7.6657,-7.6458,-7.6427,-7.6661,-7.6661,-7.6661,-7.6661,-7.6661,-7.6661,-7.5757,-7.5892,-7.5904,-7.6062,-7.6099,-7.6208,-7.6251,-7.6306,-7.6353,-7.6482,-7.6557,-7.658,-7.6628,-7.6719,-7.6799,-7.6806,-7.684,-7.688,-7.6881,-7.6696,-7.667,-7.6646,-7.6616,-7.6887,-7.6887,-7.7072,-7.7074,-7.7076]}]]